Weather History for Marrakech, Morocco

Change the Weather History Date:

Friday, September 21, 2012

  Actual Average Record
Temperature  
Mean Temperature 81 °F -  
Max Temperature 97 °F 83 °F 100 °F (2003)
Min Temperature 65 °F 60 °F 60 °F (2001)
Cooling Degree Days 16    
Growing Degree Days 31 (Base 50)    
Moisture  
Dew Point 63 °F    
Average Humidity 58    
Maximum Humidity 88    
Minimum Humidity 21    
Precipitation  
Precipitation 0.00 in 0.02 in - ()
Sea Level Pressure  
Sea Level Pressure 29.98 in    
Wind  
Wind Speed 5 mph ()    
Max Wind Speed 13 mph    
Max Gust Speed -    
Visibility 6.1 miles    
Events      
Averages and records for this station are not official NWS values.
T = Trace of Precipitation, MM = Missing Value Source: Averaged Metar Reports

Daily Weather History Graph

Daily Weather History Graph

Search for Another Location

Airport:

Trip Planner

Search our weather history database for the weather conditions in past years. The results will help you decide how hot, cold, wet, or windy it might be!

Date:

Astronomy

Sep. 21, 2012 Rise Set
Actual Time 7:19 AM WEST 7:29 PM WEST
Civil Twilight 6:55 AM WEST 7:53 PM WEST
Nautical Twilight 6:27 AM WEST 8:22 PM WEST
Astronomical Twilight 5:58 AM WEST 8:50 PM WEST
Moon 1:05 PM WEST (9/21) 11:39 PM WEST (9/21)
Length of Visible Light 12h 58m
Length of Day
12h 09m
Waxing Crescent, 35% of the Moon is Illuminated
Sep 21
Waxing Crescent
Sep 22
First Quarter
Sep 30
Full
Oct 8
Last Quarter
Oct 15
New

Hourly Weather History & Observations

Time (WEST) Temp. Heat Index Dew Point Humidity Pressure Visibility Wind Dir Wind Speed Gust Speed Precip Events Conditions
12:00 AM 75.2 °F - 64.4 °F 69% 30.01 in - Calm Calm - N/A   Clear
12:30 AM 73.4 °F - 64.4 °F 73% 30.01 in - Calm Calm - N/A   Clear
1:00 AM 72 °F - 65 °F 71% 29.93 in 6 mi WSW 6.9 mph - -  
1:00 AM 71.6 °F - 64.4 °F 78% 29.98 in - WSW 6.9 mph - N/A   Clear
1:30 AM 71.6 °F - 64.4 °F 78% 29.98 in - WSW 9.2 mph - N/A   Clear
2:00 AM 69.8 °F - 64.4 °F 83% 29.98 in - WSW 9.2 mph - N/A   Clear
2:30 AM 69.8 °F - 64.4 °F 83% 29.98 in - WSW 8.1 mph - N/A   Clear
3:00 AM 69.8 °F - 64.4 °F 83% 29.98 in - WSW 5.8 mph - N/A   Clear
3:30 AM 69.8 °F - 64.4 °F 83% 29.98 in 6.2 mi WSW 6.9 mph - N/A   Unknown
4:00 AM 68 °F - 64 °F 83% 29.92 in 6 mi WSW 5.8 mph - -  
4:00 AM 68.0 °F - 64.4 °F 88% 29.98 in - WSW 5.8 mph - N/A   Clear
4:30 AM 68.0 °F - 64.4 °F 88% 29.98 in - WSW 4.6 mph - N/A   Clear
5:00 AM 68.0 °F - 64.4 °F 88% 29.98 in - WSW 5.8 mph - N/A   Clear
5:30 AM 68.0 °F - 64.4 °F 88% 29.98 in - WSW 6.9 mph - N/A   Clear
6:00 AM 68.0 °F - 64.4 °F 88% 29.98 in - WSW 4.6 mph - N/A   Clear
6:30 AM 66.2 °F - 62.6 °F 88% 29.98 in - West 5.8 mph - N/A   Clear
7:00 AM 68 °F - 64 °F 85% 29.94 in 6 mi WSW 4.6 mph - -  
7:00 AM 68.0 °F - 64.4 °F 88% 29.98 in - WSW 5.8 mph - N/A   Clear
7:30 AM 68.0 °F - 64.4 °F 88% 30.01 in - WSW 4.6 mph - N/A   Clear
8:00 AM 69.8 °F - 64.4 °F 83% 30.01 in - WSW 3.5 mph - N/A   Clear
8:30 AM 73.4 °F - 66.2 °F 78% 30.01 in - South 3.5 mph - N/A   Clear
9:00 AM 75.2 °F - 66.2 °F 73% 30.01 in - Calm Calm - N/A   Clear
9:30 AM 78.8 °F - 66.2 °F 65% 30.01 in - Calm Calm - N/A   Clear
10:00 AM 82 °F - 66 °F 49% 29.92 in 6 mi Calm Calm - -  
10:00 AM 82.4 °F 84.6 °F 66.2 °F 58% 30.01 in - Calm Calm - N/A   Clear
10:30 AM 82.4 °F 84.6 °F 66.2 °F 58% 30.01 in - Calm Calm - N/A   Clear
11:00 AM 84.2 °F 86.6 °F 66.2 °F 55% 30.01 in - Calm Calm - N/A   Clear
11:30 AM 84.2 °F 86.6 °F 66.2 °F 55% 30.01 in - NNE 3.5 mph - N/A   Clear
12:00 PM 86.0 °F 88.2 °F 66.2 °F 51% 30.01 in - Variable 4.6 mph - N/A   Clear
12:30 PM 87.8 °F 89.4 °F 64.4 °F 46% 30.01 in - Variable 4.6 mph - N/A   Clear
1:00 PM 88 °F - 65 °F 36% 29.91 in 6 mi West 2.3 mph - -  
1:00 PM 87.8 °F 89.4 °F 64.4 °F 46% 30.01 in - Variable 2.3 mph - N/A   Clear
1:30 PM 89.6 °F 91.1 °F 64.4 °F 43% 30.01 in - East 3.5 mph - N/A   Clear
2:00 PM 91.4 °F 93.2 °F 64.4 °F 41% 30.01 in - Variable 1.2 mph - N/A   Clear
2:30 PM 93.2 °F 94.1 °F 62.6 °F 36% 29.98 in - North 4.6 mph - N/A   Clear
3:00 PM 95.0 °F 96.0 °F 62.6 °F 34% 29.98 in - ENE 3.5 mph - N/A   Clear
3:30 PM 96.8 °F 97.1 °F 60.8 °F 30% 29.98 in 6.2 mi Variable 4.6 mph - N/A   Unknown
4:00 PM 96 °F - 60 °F 21% 29.84 in 6 mi WNW 3.5 mph - -  
4:00 PM 96.8 °F 96.2 °F 59.0 °F 28% 29.95 in - WNW 4.6 mph - N/A   Clear
4:30 PM 96.8 °F 96.2 °F 59.0 °F 28% 29.95 in - West 4.6 mph - N/A   Clear
5:00 PM 96.8 °F 96.2 °F 59.0 °F 28% 29.95 in 6.2 mi NW 6.9 mph - N/A   Partly Cloudy
5:30 PM 96.8 °F 95.8 °F 57.2 °F 27% 29.95 in 6.2 mi NNW 3.5 mph - N/A   Partly Cloudy
6:00 PM 96.8 °F 95.8 °F 57.2 °F 27% 29.95 in 6.2 mi NW 4.6 mph - N/A   Partly Cloudy
6:30 PM 95.0 °F 93.7 °F 57.2 °F 28% 29.98 in 6.2 mi WNW 5.8 mph - N/A   Partly Cloudy
7:00 PM 92 °F - 56 °F 21% 29.86 in 6 mi West 11.5 mph - -   Scattered Clouds
7:00 PM 93.2 °F 91.9 °F 57.2 °F 30% 29.98 in 6.2 mi West 11.5 mph - N/A   Partly Cloudy
7:30 PM 89.6 °F 88.1 °F 57.2 °F 33% 29.98 in 6.2 mi West 10.4 mph - N/A   Partly Cloudy
8:00 PM 87.8 °F 86.5 °F 57.2 °F 35% 29.98 in 6.2 mi West 11.5 mph - N/A   Partly Cloudy
8:30 PM 86.0 °F 85.4 °F 59.0 °F 40% 29.98 in 6.2 mi West 11.5 mph - N/A   Partly Cloudy
9:00 PM 84.2 °F 85.0 °F 62.6 °F 48% 30.01 in 6.2 mi West 11.5 mph - N/A   Partly Cloudy
9:30 PM 82.4 °F 83.4 °F 62.6 °F 51% 30.01 in - West 12.7 mph - N/A   Clear
10:00 PM 80 °F - 63 °F 46% 29.94 in 6 mi WSW 11.5 mph - -  
10:00 PM 80.6 °F 81.8 °F 62.6 °F 54% 30.01 in - WSW 11.5 mph - N/A   Clear
10:30 PM 78.8 °F - 62.6 °F 57% 30.01 in - SW 10.4 mph - N/A   Clear
11:00 PM 77.0 °F - 62.6 °F 61% 30.01 in - SW 11.5 mph - N/A   Clear
11:30 PM 77.0 °F - 62.6 °F 61% 30.01 in - SW 11.5 mph - N/A   Clear